Weather History for Glenwood, MN

Change the Weather History Date:

Tuesday, September 2, 2014

  Actual Average Record
Temperature  
Mean Temperature 65 °F -  
Max Temperature 77 °F 76 °F 92 °F (1960)
Min Temperature 53 °F 52 °F 40 °F (1974)
Growing Degree Days 15 (Base 50)    
Moisture  
Dew Point 55 °F    
Average Humidity 74    
Maximum Humidity 100    
Minimum Humidity 44    
Precipitation  
Precipitation 0.00 in - - ()
Sea Level Pressure  
Sea Level Pressure 29.87 in    
Wind  
Wind Speed 7 mph (SW)    
Max Wind Speed 15 mph    
Max Gust Speed 23 mph    
Visibility 10 miles    
Events      
Averages and records for this station are not official NWS values.
T = Trace of Precipitation, MM = Missing Value Source: NWS Daily Summary

Daily Weather History Graph

Daily Weather History Graph

Search for Another Location

Airport:

Trip Planner

Search our weather history database for the weather conditions in past years. The results will help you decide how hot, cold, wet, or windy it might be!

Date:

Astronomy

Sep. 02, 2014 Rise Set
Actual Time 6:43 AM CDT 7:57 PM CDT
Civil Twilight 6:13 AM CDT 8:27 PM CDT
Nautical Twilight 5:36 AM CDT 9:04 PM CDT
Astronomical Twilight 4:57 AM CDT 9:43 PM CDT
Moon 2:50 PM CDT (9/2) No Moon Set
Length of Visible Light 14h 14m
Length of Day
13h 13m
First Quarter, 53% of the Moon is Illuminated
Sep 2
First Quarter
Sep 8
Full
Sep 15
Last Quarter
Sep 24
New
Oct 1
First Quarter

Hourly Weather History & Observations

Time (CDT) Temp. Dew Point Humidity Pressure Visibility Wind Dir Wind Speed Gust Speed Precip Events Conditions
12:13 AM 59.0 °F 55.4 °F 88% 29.83 in 10.0 mi West 5.8 mph - N/A   Clear
12:33 AM 59.0 °F 55.4 °F 88% 29.83 in 10.0 mi WSW 5.8 mph - N/A   Clear
12:53 AM 59.0 °F 55.4 °F 88% 29.84 in 10.0 mi WSW 6.9 mph - N/A   Clear
1:13 AM 60.8 °F 57.2 °F 88% 29.84 in 10.0 mi West 8.1 mph - N/A   Clear
1:33 AM 60.8 °F 57.2 °F 88% 29.85 in 10.0 mi WSW 8.1 mph - N/A   Clear
1:53 AM 60.8 °F 57.2 °F 88% 29.85 in 10.0 mi West 8.1 mph - N/A   Clear
2:13 AM 59.0 °F 57.2 °F 94% 29.84 in 10.0 mi West 8.1 mph - N/A   Clear
2:33 AM 59.0 °F 55.4 °F 88% 29.85 in 10.0 mi West 8.1 mph - N/A   Clear
2:53 AM 57.2 °F 55.4 °F 94% 29.85 in 10.0 mi West 6.9 mph - N/A   Clear
3:13 AM 57.2 °F 55.4 °F 94% 29.84 in 10.0 mi West 5.8 mph - N/A   Clear
3:33 AM 57.2 °F 55.4 °F 94% 29.85 in 10.0 mi West 5.8 mph - N/A   Clear
3:53 AM 55.4 °F 53.6 °F 94% 29.86 in 10.0 mi West 4.6 mph - N/A   Clear
4:13 AM 55.4 °F 53.6 °F 94% 29.86 in 10.0 mi West 4.6 mph - N/A   Clear
4:32 AM 55.4 °F 53.6 °F 94% 29.87 in 10.0 mi West 5.8 mph - N/A   Clear
4:53 AM 55.4 °F 53.6 °F 94% 29.87 in 10.0 mi West 6.9 mph - N/A   Clear
5:13 AM 57.2 °F 53.6 °F 88% 29.87 in 10.0 mi West 6.9 mph - N/A   Clear
5:33 AM 55.4 °F 53.6 °F 94% 29.87 in 10.0 mi West 6.9 mph - N/A   Clear
5:53 AM 55.4 °F 53.6 °F 94% 29.87 in 10.0 mi West 5.8 mph - N/A   Clear
6:12 AM 55.4 °F 53.6 °F 94% 29.87 in 10.0 mi West 6.9 mph - N/A   Clear
6:33 AM 53.6 °F 51.8 °F 94% 29.87 in 10.0 mi WSW 4.6 mph - N/A   Clear
6:53 AM 53.6 °F 51.8 °F 94% 29.88 in 7.0 mi WSW 4.6 mph - N/A   Clear
7:13 AM 53.6 °F 51.8 °F 94% 29.89 in 7.0 mi WSW 5.8 mph - N/A   Clear
7:33 AM 55.4 °F 55.4 °F 100% 29.89 in 10.0 mi West 5.8 mph - N/A   Clear
7:53 AM 57.2 °F 55.4 °F 94% 29.89 in 10.0 mi WSW 3.5 mph - N/A   Clear
8:13 AM 59.0 °F 57.2 °F 94% 29.89 in 10.0 mi WSW 4.6 mph - N/A   Clear
8:33 AM 60.8 °F 57.2 °F 88% 29.89 in 10.0 mi WSW 5.8 mph - N/A   Clear
8:53 AM 62.6 °F 57.2 °F 82% 29.89 in 10.0 mi SW 3.5 mph - N/A   Clear
9:13 AM 64.4 °F 55.4 °F 73% 29.89 in 10.0 mi WSW 4.6 mph - N/A   Clear
9:33 AM 66.2 °F 55.4 °F 68% 29.89 in 10.0 mi SW 4.6 mph - N/A   Clear
9:53 AM 68.0 °F 55.4 °F 64% 29.90 in 10.0 mi SW 5.8 mph - N/A   Clear
10:13 AM 69.8 °F 55.4 °F 60% 29.90 in 10.0 mi SSW 8.1 mph - N/A   Clear
10:33 AM 69.8 °F 55.4 °F 60% 29.90 in 10.0 mi WSW 8.1 mph - N/A   Clear
10:53 AM 69.8 °F 55.4 °F 60% 29.90 in 10.0 mi WSW 10.4 mph - N/A   Clear
11:13 AM 71.6 °F 55.4 °F 57% 29.90 in 10.0 mi WSW 9.2 mph - N/A   Clear
11:33 AM 71.6 °F 55.4 °F 57% 29.90 in 10.0 mi WSW 6.9 mph - N/A   Clear
11:53 AM 73.4 °F 55.4 °F 53% 29.90 in 10.0 mi SSW 8.1 mph - N/A   Clear
12:13 PM 73.4 °F 53.6 °F 50% 29.90 in 10.0 mi WSW 10.4 mph - N/A   Clear
12:33 PM 73.4 °F 53.6 °F 50% 29.90 in 10.0 mi SW 9.2 mph - N/A   Clear
12:53 PM 73.4 °F 53.6 °F 50% 29.90 in 10.0 mi SW 8.1 mph 11.5 mph N/A   Clear
1:12 PM 73.4 °F 53.6 °F 50% 29.90 in 10.0 mi SW 13.8 mph 19.6 mph N/A   Clear
1:33 PM 73.4 °F 53.6 °F 50% 29.89 in 10.0 mi SSW 13.8 mph - N/A   Scattered Clouds
1:53 PM 75.2 °F 53.6 °F 47% 29.89 in 10.0 mi SSW 13.8 mph 19.6 mph N/A   Clear
2:13 PM 75.2 °F 51.8 °F 44% 29.89 in 10.0 mi SW 10.4 mph - N/A   Clear
2:33 PM 75.2 °F 53.6 °F 47% 29.89 in 10.0 mi SSW 12.7 mph 17.3 mph N/A   Clear
2:53 PM 75.2 °F 53.6 °F 47% 29.88 in 10.0 mi SSW 10.4 mph 21.9 mph N/A   Clear
3:13 PM 75.2 °F 53.6 °F 47% 29.88 in 10.0 mi SSW 15.0 mph - N/A   Scattered Clouds
3:32 PM 77.0 °F 55.4 °F 47% 29.87 in 10.0 mi SSW 13.8 mph 18.4 mph N/A   Scattered Clouds
3:53 PM 77.0 °F 53.6 °F 44% 29.87 in 10.0 mi SW 15.0 mph 23.0 mph N/A   Scattered Clouds
4:13 PM 77.0 °F 53.6 °F 44% 29.87 in 10.0 mi SW 12.7 mph 21.9 mph N/A   Scattered Clouds
4:33 PM 77.0 °F 53.6 °F 44% 29.86 in 10.0 mi SW 10.4 mph 19.6 mph N/A   Clear
4:53 PM 75.2 °F 53.6 °F 47% 29.86 in 10.0 mi SW 15.0 mph 18.4 mph N/A   Clear
5:13 PM 75.2 °F 53.6 °F 47% 29.86 in 10.0 mi SW 10.4 mph 18.4 mph N/A   Clear
5:53 PM 73.4 °F 55.4 °F 53% 29.86 in 10.0 mi SSW 8.1 mph - N/A   Clear
6:13 PM 73.4 °F 57.2 °F 57% 29.85 in 10.0 mi South 6.9 mph - N/A   Clear
6:33 PM 73.4 °F 55.4 °F 53% 29.85 in 10.0 mi SSW 8.1 mph - N/A   Clear
6:53 PM 73.4 °F 57.2 °F 57% 29.85 in 10.0 mi SSW 8.1 mph - N/A   Clear
7:13 PM 71.6 °F 57.2 °F 60% 29.85 in 10.0 mi SSW 6.9 mph - N/A   Clear
7:33 PM 69.8 °F 57.2 °F 64% 29.85 in 10.0 mi South 6.9 mph - N/A   Clear
7:53 PM 66.2 °F 57.2 °F 73% 29.84 in 10.0 mi South 6.9 mph - N/A   Clear
8:13 PM 64.4 °F 57.2 °F 77% 29.84 in 10.0 mi South 8.1 mph - N/A   Clear
8:33 PM 64.4 °F 57.2 °F 77% 29.85 in 10.0 mi South 8.1 mph - N/A   Clear
8:53 PM 62.6 °F 57.2 °F 82% 29.85 in 10.0 mi South 8.1 mph - N/A   Clear
9:13 PM 62.6 °F 57.2 °F 82% 29.85 in 10.0 mi South 8.1 mph - N/A   Clear
9:33 PM 60.8 °F 55.4 °F 82% 29.85 in 10.0 mi South 8.1 mph - N/A   Clear
9:53 PM 59.0 °F 55.4 °F 88% 29.85 in 10.0 mi South 4.6 mph - N/A   Clear
10:13 PM 59.0 °F 55.4 °F 88% 29.85 in 10.0 mi South 5.8 mph - N/A   Clear
10:33 PM 59.0 °F 55.4 °F 88% 29.85 in 10.0 mi South 4.6 mph - N/A   Clear
10:53 PM 59.0 °F 55.4 °F 88% 29.84 in 10.0 mi SSW 4.6 mph - N/A   Clear
11:13 PM 57.2 °F 55.4 °F 94% 29.84 in 10.0 mi South 6.9 mph - N/A   Clear
11:33 PM 59.0 °F 55.4 °F 88% 29.84 in 10.0 mi South 8.1 mph - N/A   Clear
11:53 PM 59.0 °F 55.4 °F 88% 29.84 in 10.0 mi South 9.2 mph - N/A   Clear